GW6106 Weather Reports


time (UTC)temp
C
wind
direction
speed
KPH
gust
KPH
rain 1hr
cm
rain 24hr
cm
rain mn
cm
humidity
%
barometer
mb
20260504050350 7 167 4.8 6.4 0.00 0.00 0.10 92 1008.0
20260504045849 7 172 3.2 4.8 0.00 0.00 0.10 92 1008.0
20260504045349 7 161 3.2 4.8 0.00 0.00 0.10 92 1008.0
20260504044849 7 119 0.0 3.2 0.00 0.00 0.10 92 1009.0
20260504044349 7 165 1.6 6.4 0.00 0.00 0.10 92 1008.0
20260504043849 7 162 3.2 4.8 0.00 0.00 0.10 91 1009.0
20260504043351 7 148 3.2 4.8 0.00 0.00 0.10 91 1009.0
20260504042854 7 156 4.8 6.4 0.25 0.00 0.10 91 1009.0
20260504042349 7 191 3.2 6.4 0.25 0.00 0.08 91 1009.0
20260504041849 7 205 4.8 6.4 0.18 0.00 0.05 91 1009.0
20260504041349 7 159 0.0 3.2 0.58 0.00 0.03 91 1009.0
20260504040849 7 203 3.2 6.4 0.10 0.00 0.00 90 1009.0
20260504040350 7 200 1.6 6.4 0.03 0.00 0.00 90 1009.0
20260504035850 7 198 3.2 4.8 0.00 0.00 0.20 90 1009.0
20260504035349 7 201 3.2 4.8 0.00 0.00 0.20 90 1009.0
20260504034850 7 218 0.0 0.0 0.05 0.00 0.20 90 1009.0
20260504034349 7 213 0.0 3.2 0.00 0.00 0.20 90 1009.0
20260504033850 7 195 1.6 3.2 0.00 0.00 0.20 90 1009.0
20260504033349 7 224 0.0 3.2 0.00 0.00 0.20 90 1009.0
20260504032851 7 0 0.0 0.0 0.00 0.00 0.20 90 1009.0
20260504032349 7 346 0.0 1.6 0.00 0.00 0.20 90 1009.0
20260504031850 7 172 0.0 3.2 0.00 0.00 0.23 89 1009.0
20260504031350 7 192 3.2 9.7 0.00 0.00 0.23 89 1009.0
20260504030850 7 141 0.0 3.2 0.00 0.00 0.23 89 1009.0
20260504030349 7 131 0.0 3.2 0.00 0.00 0.20 89 1009.0
20260504025850 7 0 0.0 0.0 0.00 0.00 0.20 88 1009.0
20260504025349 7 191 1.6 3.2 0.08 0.00 0.18 87 1009.0
20260504024849 7 251 0.0 1.6 0.00 0.00 0.18 87 1009.0
20260504024349 7 173 0.0 3.2 0.00 0.00 0.18 87 1009.0
20260504023849 7 240 0.0 1.6 0.00 0.00 0.18 86 1009.0
20260504023350 7 213 1.6 4.8 0.00 0.00 0.18 86 1009.0
20260504022850 7 205 3.2 4.8 0.00 0.00 0.18 85 1009.0
20260504022349 7 208 3.2 4.8 0.05 0.00 0.18 84 1009.0
20260504021849 7 229 4.8 6.4 0.03 0.00 0.20 83 1009.0
20260504021351 7 244 8.0 12.9 0.25 0.00 0.20 82 1010.0
20260504020850 7 215 6.4 8.0 0.23 0.00 0.18 81 1010.0
20260504020349 7 231 4.8 6.4 0.05 0.00 0.15 81 1010.0
20260504015851 7 227 6.4 11.3 0.13 0.00 0.15 79 1010.0
20260504015350 7 226 6.4 8.0 0.03 0.00 0.15 78 1010.0
20260504014849 7 226 4.8 8.0 0.05 0.00 0.15 78 1010.0
20260504014350 7 226 6.4 8.0 0.13 0.00 0.13 77 1010.0
20260504013850 7 225 6.4 8.0 0.13 0.00 0.13 77 1010.0
20260504013349 7 211 6.4 9.7 0.10 0.00 0.10 77 1009.0
20260504012849 8 217 4.8 9.7 0.23 0.00 0.10 77 1009.0
20260504012350 8 217 8.0 11.3 0.20 0.00 0.08 75 1009.0
20260504011849 8 236 8.0 11.3 0.10 0.00 0.05 74 1009.0
20260504011350 8 228 6.4 9.7 0.05 0.00 0.05 72 1009.0
20260504010849 8 219 6.4 8.0 0.13 0.00 0.05 71 1009.0
20260504010350 8 219 6.4 9.7 0.10 0.00 0.03 71 1009.0
20260504005849 8 199 1.6 3.2 0.08 0.00 0.03 71 1009.0
20260504005349 8 170 4.8 6.4 0.03 0.00 0.03 69 1009.0
20260504004849 8 151 3.2 6.4 0.08 0.00 0.00 67 1009.0
20260504004349 8 166 3.2 8.0 0.00 0.00 0.00 65 1009.0
20260504003849 8 147 3.2 6.4 0.00 0.00 0.00 64 1009.0
20260504003349 8 137 0.0 3.2 0.00 0.00 0.00 62 1009.0
20260504002850 8 140 3.2 6.4 0.00 0.00 0.00 61 1009.0
20260504002350 8 161 0.0 4.8 0.00 0.00 0.00 60 1009.0
20260504001849 8 138 1.6 3.2 0.00 0.00 0.00 59 1009.0
20260504001349 8 147 1.6 4.8 0.00 0.00 0.00 58 1009.0
20260504000849 8 158 0.0 0.0 0.00 0.00 0.00 58 1009.0
20260504000350 8 159 1.6 4.8 0.00 0.00 0.00 57 1009.0
20260503235849 8 139 0.0 3.2 0.00 0.00 0.00 56 1009.0
20260503235349 8 173 0.0 3.2 0.00 0.00 0.00 56 1009.0
20260503234849 9 186 0.0 4.8 0.00 0.00 0.00 55 1009.0
20260503234349 9 181 6.4 9.7 0.00 0.00 0.00 53 1009.0
20260503233849 9 193 1.6 4.8 0.00 0.00 0.00 52 1009.0
20260503233349 9 230 6.4 8.0 0.00 0.00 0.00 52 1009.0
20260503232850 9 213 4.8 6.4 0.00 0.00 0.00 51 1009.0
20260503232350 9 255 6.4 11.3 0.00 0.00 0.00 48 1009.0
20260503231850 9 246 3.2 4.8 0.00 0.00 0.00 47 1009.0
20260503231349 9 224 3.2 6.4 0.00 0.00 0.00 46 1009.0
20260503230849 9 242 3.2 6.4 0.00 0.00 0.00 46 1009.0
20260503230349 9 235 4.8 6.4 0.00 0.00 0.00 45 1009.0
20260503225849 9 217 3.2 8.0 0.00 0.00 0.00 46 1009.0
20260503225350 9 229 3.2 4.8 0.00 0.00 0.00 46 1009.0
20260503224851 9 203 3.2 6.4 0.00 0.00 0.00 46 1009.0
20260503224349 9 237 1.6 4.8 0.00 0.00 0.00 46 1009.0
20260503223850 9 230 0.0 3.2 0.00 0.00 0.00 48 1009.0
20260503223349 9 234 1.6 4.8 0.00 0.00 0.00 44 1009.0
20260503222849 9 232 4.8 8.0 0.00 0.00 0.00 44 1009.0
20260503222350 10 228 3.2 6.4 0.00 0.00 0.00 46 1009.0
20260503221849 10 241 3.2 4.8 0.00 0.00 0.00 45 1009.0
20260503221351 10 245 3.2 6.4 0.00 0.00 0.00 45 1009.0
20260503220850 10 224 3.2 4.8 0.00 0.00 0.00 43 1009.0
20260503220349 10 254 4.8 6.4 0.00 0.00 0.00 45 1009.0
20260503215850 10 256 9.7 12.9 0.00 0.00 0.00 44 1009.0
20260503215349 10 253 6.4 9.7 0.00 0.00 0.00 44 1009.0
20260503214849 10 227 3.2 6.4 0.00 0.00 0.00 44 1009.0
20260503214349 10 260 8.0 14.5 0.00 0.00 0.00 42 1009.0
20260503213849 10 237 6.4 9.7 0.00 0.00 0.00 44 1009.0
20260503213349 10 261 8.0 11.3 0.00 0.00 0.00 43 1009.0
20260503212850 10 247 9.7 11.3 0.00 0.00 0.00 44 1009.0
20260503212349 10 264 1.6 3.2 0.00 0.00 0.00 43 1009.0
20260503211849 10 234 9.7 12.9 0.00 0.00 0.00 42 1009.0
20260503211351 10 246 11.3 14.5 0.00 0.00 0.00 42 1009.0
20260503210850 11 248 11.3 19.3 0.00 0.00 0.00 43 1009.0
20260503210349 11 250 9.7 16.1 0.00 0.00 0.00 43 1009.0
20260503205849 10 257 12.9 17.7 0.00 0.00 0.00 43 1009.0
20260503205349 10 261 11.3 14.5 0.00 0.00 0.00 46 1009.0
20260503204849 10 231 9.7 16.1 0.00 0.00 0.00 46 1009.0
20260503204349 10 245 12.9 17.7 0.00 0.00 0.00 46 1009.0
20260503203849 10 252 16.1 22.5 0.00 0.00 0.00 45 1009.0
20260503203349 9 243 9.7 12.9 0.00 0.00 0.00 50 1010.0
20260503202850 9 242 12.9 19.3 0.00 0.00 0.00 50 1010.0
20260503202350 9 258 16.1 19.3 0.00 0.00 0.00 49 1010.0
20260503201849 10 259 11.3 16.1 0.00 0.00 0.00 52 1010.0
20260503201349 10 255 11.3 16.1 0.00 0.00 0.00 50 1010.0
20260503200849 10 231 14.5 19.3 0.00 0.00 0.00 49 1010.0
20260503200350 10 262 6.4 14.5 0.00 0.00 0.00 49 1010.0
20260503195849 11 233 16.1 24.1 0.00 0.00 0.00 48 1010.0
20260503195353 11 248 6.4 12.9 0.00 0.00 0.00 50 1010.0
20260503194850 10 253 12.9 17.7 0.00 0.00 0.00 50 1010.0
20260503194349 10 249 11.3 14.5 0.00 0.00 0.00 51 1010.0
20260503193849 10 258 12.9 16.1 0.00 0.00 0.00 50 1010.0
20260503193349 10 257 9.7 16.1 0.00 0.00 0.00 50 1010.0
20260503192849 10 266 14.5 17.7 0.00 0.00 0.00 50 1010.0
20260503192349 10 258 9.7 17.7 0.00 0.00 0.00 50 1010.0
20260503191849 10 268 4.8 12.9 0.00 0.00 0.00 49 1010.0
20260503191349 10 260 14.5 19.3 0.00 0.00 0.00 48 1010.0
20260503190849 10 256 14.5 20.9 0.00 0.00 0.00 49 1010.0
20260503190350 10 264 11.3 16.1 0.00 0.00 0.00 47 1010.0
20260503185850 10 268 11.3 17.7 0.00 0.00 0.00 46 1010.0
20260503185350 10 286 3.2 6.4 0.00 0.00 0.00 46 1010.0
20260503184849 10 239 9.7 16.1 0.00 0.00 0.00 45 1011.0
20260503184352 10 246 12.9 16.1 0.00 0.00 0.00 46 1011.0
20260503183850 9 229 8.0 12.9 0.00 0.00 0.00 43 1011.0
20260503183350 9 258 9.7 17.7 0.00 0.00 0.00 44 1011.0
20260503182849 10 265 9.7 16.1 0.00 0.00 0.00 45 1011.0
20260503182349 9 249 11.3 16.1 0.00 0.00 0.00 45 1011.0
20260503181849 9 261 11.3 14.5 0.00 0.00 0.00 45 1011.0
20260503181349 9 264 14.5 17.7 0.00 0.00 0.00 44 1011.0
20260503180849 9 231 6.4 12.9 0.00 0.00 0.00 45 1011.0
20260503180351 9 253 12.9 16.1 0.00 0.00 0.00 43 1011.0
20260503175850 9 258 14.5 17.7 0.00 0.00 0.00 42 1011.0
20260503175351 9 231 8.0 12.9 0.00 0.00 0.00 47 1011.0
20260503174849 9 259 14.5 19.3 0.00 0.00 0.00 44 1011.0
20260503174350 9 244 11.3 14.5 0.00 0.00 0.00 45 1011.0
20260503173849 9 251 9.7 12.9 0.00 0.00 0.00 44 1011.0
20260503173349 9 254 12.9 19.3 0.00 0.00 0.00 44 1011.0
20260503172857 9 256 12.9 20.9 0.00 0.00 0.00 44 1011.0
20260503172349 8 233 8.0 11.3 0.00 0.00 0.00 45 1011.0
20260503171850 8 252 6.4 9.7 0.00 0.00 0.00 46 1011.0
20260503171349 8 258 12.9 20.9 0.00 0.00 0.00 44 1011.0
20260503170850 8 250 12.9 20.9 0.00 0.00 0.00 43 1011.0
20260503170353 8 288 6.4 8.0 0.00 0.00 0.00 44 1011.0
20260503150849 7 260 14.5 19.3 0.00 0.00 0.00 56 1013.0
20260503150350 7 261 8.0 9.7 0.00 0.00 0.00 57 1013.0
20260503131349 7 342 4.8 6.4 0.00 0.00 0.00 50 1012.0
20260503130849 6 317 3.2 8.0 0.00 0.00 0.00 52 1013.0
20260503130349 6 248 4.8 8.0 0.00 0.00 0.00 58 1013.0
20260503110350 2 282 1.6 1.6 0.00 0.00 0.00 83 1012.0
20260503090349 2 0 0.0 0.0 0.00 0.00 0.00 88 1012.0
20260503081350 2 112 0.0 1.6 0.00 0.00 0.00 89 1012.0
20260503080850 2 105 0.0 1.6 0.00 0.00 0.00 89 1012.0
20260503080350 2 116 1.6 1.6 0.00 0.00 0.00 89 1012.0
20260503072850 2 72 0.0 1.6 0.00 0.00 0.00 88 1012.0
20260503072350 2 98 1.6 3.2 0.00 0.00 0.00 88 1012.0
20260503071849 2 100 1.6 3.2 0.00 0.00 0.00 88 1012.0
20260503071350 2 101 1.6 3.2 0.00 0.00 0.00 88 1012.0
20260503070849 2 101 3.2 3.2 0.00 0.00 0.00 88 1012.0
20260503070349 2 88 1.6 3.2 0.00 0.00 0.00 88 1012.0
20260503054849 3 25 0.0 1.6 0.00 0.00 0.00 84 1013.0